EW3309 Weather Reports


Display with metric or nautical units.
time (UTC)temp
F
wind
direction
speed
MPH
gust
MPH
rain 1hr
in
rain 24hr
in
rain mn
in
humidity
%
barometer
mb
20260509001509 76 298 0.0 0.0 0.00 0.00 0.00 58 1011.7
20260509000008 76 293 0.0 0.0 0.00 0.00 0.00 58 1011.7
20260508234508 76 302 0.0 0.0 0.00 0.00 0.00 58 1011.8
20260508233007 76 265 0.0 0.0 0.00 0.00 0.00 58 1011.8
20260508231506 77 276 0.0 0.0 0.00 0.00 0.00 57 1012.0
20260508230007 77 271 0.0 0.0 0.00 0.00 0.00 56 1012.0
20260508224504 78 289 0.0 0.0 0.00 0.00 0.00 55 1012.0
20260508223003 79 296 0.0 0.0 0.00 0.00 0.00 55 1012.1
20260508221600 80 290 0.0 0.0 0.00 0.00 0.00 54 1012.3
20260508220059 81 313 0.0 0.0 0.00 0.00 0.00 53 1012.3
20260508214558 82 242 0.0 0.0 0.00 0.00 0.00 52 1012.4
20260508213056 82 237 0.0 0.0 0.00 0.00 0.00 51 1012.3
20260508211556 84 251 0.0 0.0 0.00 0.00 0.00 49 1012.3
20260508210052 85 279 0.0 0.0 0.00 0.00 0.00 49 1012.3
20260508204555 85 256 0.0 0.0 0.00 0.00 0.00 49 1012.4
20260508203047 84 183 0.0 0.0 0.00 0.00 0.00 49 1012.5
20260508201543 83 216 0.0 0.0 0.00 0.00 0.00 49 1012.6
20260508200055 83 209 0.0 0.0 0.00 0.00 0.00 49 1012.8
20260508194652 82 209 0.0 0.0 0.00 0.00 0.00 50 1012.8
20260508193035 82 250 0.0 0.0 0.00 0.00 0.00 51 1013.2
20260508191532 81 187 0.0 0.0 0.00 0.00 0.00 53 1013.3
20260508190025 79 191 0.0 0.0 0.00 0.00 0.00 57 1013.5
20260508184521 77 327 0.0 0.0 0.00 0.00 0.00 60 1013.7
20260508183023 75 188 0.0 0.0 0.00 0.00 0.00 64 1014.0
20260508181511 74 171 0.0 0.0 0.00 0.00 0.00 67 1014.1
20260508180013 72 227 0.0 0.0 0.00 0.00 0.00 70 1014.3
20260508174503 70 298 0.0 0.0 0.00 0.00 0.00 75 1014.3
20260508173059 67 205 0.0 0.0 0.00 0.00 0.00 79 1014.6
20260508171556 65 245 0.0 0.0 0.00 0.00 0.00 82 1014.7
20260508170057 64 305 0.0 0.0 0.00 0.00 0.00 83 1014.7
20260508164549 64 309 0.0 0.0 0.00 0.00 0.00 85 1014.8
20260508163042 63 271 0.0 0.0 0.00 0.00 0.00 86 1014.8
20260508161539 63 265 0.0 0.0 0.00 0.00 0.00 87 1014.9
20260508160034 62 206 0.0 0.0 0.00 0.00 0.00 87 1015.0
20260508154544 62 222 0.0 0.0 0.00 0.00 0.00 88 1015.0
20260508153027 62 221 0.0 0.0 0.00 0.00 0.00 88 1015.0
20260508151524 61 221 0.0 0.0 0.00 0.00 0.00 88 1014.9
20260508150025 61 221 0.0 0.0 0.00 0.00 0.00 88 1015.0
20260508144521 61 233 0.0 0.0 0.00 0.00 0.00 89 1014.9
20260508143018 61 233 0.0 0.0 0.00 0.00 0.00 89 1014.9
20260508141523 61 234 0.0 0.0 0.00 0.00 0.00 89 1014.8
20260508140015 61 230 0.0 0.0 0.00 0.00 0.00 89 1014.7
20260508134514 61 227 0.0 0.0 0.00 0.00 0.00 89 1014.6
20260508133012 61 227 0.0 0.0 0.00 0.00 0.00 89 1014.5
20260508131511 61 227 0.0 0.0 0.00 0.00 0.00 89 1014.4
20260508130014 61 227 0.0 0.0 0.00 0.00 0.00 88 1014.3
20260508124512 61 227 0.0 0.0 0.00 0.00 0.00 88 1014.3
20260508123015 61 230 0.0 0.0 0.00 0.00 0.00 89 1014.2
20260508121513 61 248 0.0 0.0 0.00 0.00 0.00 89 1014.1
20260508120039 61 257 0.0 0.0 0.00 0.00 0.00 89 1014.2
20260508114507 61 257 0.0 0.0 0.00 0.00 0.00 88 1014.1
20260508113008 61 257 0.0 0.0 0.00 0.00 0.00 88 1014.1
20260508111507 61 257 0.0 0.0 0.00 0.00 0.00 88 1014.1
20260508110005 61 257 0.0 0.0 0.00 0.00 0.00 88 1014.1
20260508104504 61 255 0.0 0.0 0.00 0.00 0.00 88 1014.2
20260508103005 61 263 0.0 0.0 0.00 0.00 0.00 88 1014.4
20260508101502 61 263 0.0 0.0 0.00 0.00 0.00 88 1014.4
20260508100002 61 263 0.0 0.0 0.00 0.00 0.00 88 1014.5
20260508094500 61 264 0.0 0.0 0.00 0.00 0.00 88 1014.3
20260508093100 61 263 0.0 0.0 0.00 0.00 0.00 88 1014.2
20260508091605 61 262 0.0 0.0 0.00 0.00 0.00 87 1014.3
20260508090114 61 262 0.0 0.0 0.00 0.00 0.00 87 1014.4
20260508084557 61 319 0.0 0.0 0.00 0.00 0.00 87 1014.5
20260508083054 61 323 0.0 0.0 0.00 0.00 0.00 87 1014.6
20260508081604 61 303 0.0 0.0 0.00 0.00 0.00 87 1014.7
20260508080052 61 303 0.0 0.0 0.00 0.00 0.00 87 1014.9
20260508074551 61 304 0.0 0.0 0.00 0.00 0.00 87 1015.0
20260508073105 61 304 0.0 0.0 0.00 0.00 0.00 87 1015.0
20260508071548 61 304 0.0 0.0 0.00 0.00 0.00 87 1015.2
20260508070048 61 304 0.0 0.0 0.00 0.00 0.00 87 1015.2
20260508064549 61 304 0.0 0.0 0.00 0.00 0.00 87 1015.3
20260508063050 61 304 0.0 0.0 0.00 0.00 0.00 87 1015.3
20260508061546 61 304 0.0 0.0 0.00 0.00 0.00 87 1015.4
20260508060100 61 304 0.0 0.0 0.00 0.00 0.00 86 1015.3
20260508054543 61 304 0.0 0.0 0.00 0.00 0.00 86 1015.3
20260508053042 61 304 0.0 0.0 0.00 0.00 0.00 85 1015.3
20260508051559 61 304 0.0 0.0 0.00 0.00 0.00 85 1015.2
20260508050042 61 304 0.0 0.0 0.00 0.00 0.00 84 1015.2
20260508044547 61 287 0.0 0.0 0.00 0.00 0.00 83 1015.0
20260508043040 61 287 0.0 0.0 0.00 0.00 0.00 82 1014.9
20260508041540 62 286 0.0 0.0 0.00 0.00 0.00 82 1014.6
20260508040049 63 286 0.0 0.0 0.00 0.00 0.00 80 1014.4
20260508034547 63 284 0.0 0.0 0.00 0.00 0.00 79 1014.2
20260508033044 64 267 0.0 0.0 0.00 0.00 0.00 77 1014.1
20260508031541 65 283 0.0 0.0 0.00 0.00 0.00 75 1013.9
20260508030037 66 295 0.0 0.0 0.00 0.00 0.00 73 1013.5
20260508024600 68 274 0.0 0.0 0.00 0.00 0.00 71 1013.3
20260508023038 69 261 0.0 0.0 0.00 0.00 0.00 68 1013.0
20260508021538 71 227 0.0 0.0 0.00 0.00 0.00 65 1012.8
20260508020043 73 290 0.0 0.0 0.00 0.00 0.00 63 1012.7
20260508014538 73 252 0.0 0.0 0.00 0.00 0.00 62 1012.6
20260508013035 74 286 0.0 0.0 0.00 0.00 0.00 62 1012.8
20260508011533 74 281 0.0 0.0 0.00 0.00 0.00 61 1012.8
20260508010037 74 256 0.0 0.0 0.00 0.00 0.00 61 1012.8
20260508004542 75 318 0.0 0.0 0.00 0.00 0.00 60 1012.8
20260508003028 75 257 0.0 0.0 0.00 0.00 0.00 59 1012.8